QPF
0.00 0.00 0.00 0.00 0.00 0.00 0.00 0.00 0.00 0.00 0.00 0.00 0.00 0.00 0.00 0.00 0.00 0.01 0.01 0.02 0.02 0.01 0.01 0.01 0.00 0.00 0.00 0.01 0.01 0.01 0.01 0.01 0.01 0.01 0.00 0.00 0.00 0.00 0.00 0.00 0.00 0.00 0.00
0.00 0.00 0.00 0.00 0.00 0.00 0.00 0.00 0.00 0.00 0.00 0.00 0.00 0.00 0.00 0.01 0.01 0.01 0.02 0.02 0.01 0.01 0.01 0.00 0.00 0.00 0.01 0.00 0.00 0.00 0.00 0.00 0.01 0.00 0.00 0.00 0.00 0.00 0.00 0.00 0.00 0.00 0.00
0.00 0.00 0.00 0.00 0.00 0.00 0.00 0.00 0.00 0.00 0.00 0.00 0.00 0.01 0.01 0.01 0.01 0.01 0.01 0.01 0.01 0.01 0.01 0.01 0.00 0.00 0.00 0.00 0.00 0.00 0.00 0.00 0.00 0.00 0.00 0.00 0.00 0.00 0.00 0.00 0.00 0.00 0.00
0.00 0.00 0.00 0.00 0.00 0.00 0.00 0.00 0.00 0.00 0.00 0.00 0.00 0.00 0.00 0.00 0.00 0.00 0.00 0.00 0.00 0.00 0.00 0.00 0.00 0.00 0.00 0.00 0.00 0.00 0.00 0.00 0.00 0.01 0.00 0.00 0.00 0.00 0.00 0.00 0.00 0.01 0.01
0.00 0.00 0.00 0.00 0.00 0.00 0.00 0.00 0.00 0.00 0.00 0.00 0.00 0.00 0.00 0.00 0.00 0.00 0.00 0.00 0.00 0.00 0.00 0.00 0.00 0.00 0.00 0.00 0.00 0.00 0.00 0.01 0.01 0.01 0.01 0.01 0.01 0.01 0.01 0.01 0.01 0.01 0.00
0.00 0.00 0.00 0.00 0.00 0.00 0.00 0.00 0.00 0.00 0.00 0.00 0.00 0.00 0.00 0.00 0.00 0.00 0.00 0.00 0.00 0.00 0.00 0.00 0.00 0.00 0.00 0.00 0.00 0.01 0.01 0.01 0.01 0.01 0.01 0.01 0.01 0.01 0.01 0.02 0.02 0.02 0.01
0.00 0.00 0.00 0.00 0.00 0.00 0.00 0.00 0.00 0.00 0.00 0.00 0.00 0.00 0.00 0.00 0.00 0.00 0.00 0.00 0.00 0.00 0.00 0.00 0.00 0.00 0.00 0.00 0.00 0.01 0.01 0.01 0.01 0.01 0.01 0.01 0.01 0.02 0.02 0.02 0.02 0.02 0.02
0.00 0.00 0.00 0.00 0.00 0.00 0.00 0.00 0.00 0.00 0.00 0.00 0.00 0.00 0.00 0.00 0.00 0.00 0.00 0.00 0.00 0.00 0.00 0.00 0.00 0.00 0.00 0.00 0.00 0.00 0.00 0.00 0.00 0.00 0.01 0.01 0.01 0.02 0.02 0.03 0.03 0.02 0.01
0.00 0.00 0.00 0.00 0.00 0.00 0.00 0.00 0.00 0.00 0.00 0.00 0.00 0.00 0.00 0.00 0.00 0.01 0.00 0.00 0.00 0.00 0.00 0.00 0.00 0.00 0.00 0.00 0.00 0.00 0.00 0.00 0.00 0.00 0.01 0.01 0.01 0.01 0.01 0.02 0.02 0.02 0.02
0.00 0.00 0.00 0.00 0.00 0.00 0.00 0.00 0.00 0.00 0.00 0.00 0.00 0.00 0.00 0.00 0.00 0.01 0.01 0.00 0.00 0.00 0.00 0.00 0.00 0.00 0.00 0.00 0.00 0.00 0.00 0.01 0.00 0.00 0.01 0.01 0.00 0.00 0.01 0.01 0.01 0.02 0.02
0.00 0.00 0.00 0.00 0.00 0.00 0.00 0.00 0.00 0.00 0.00 0.00 0.00 0.00 0.00 0.00 0.00 0.00 0.00 0.00 0.00 0.00 0.00 0.00 0.00 0.00 0.00 0.00 0.00 0.00 0.01 0.01 0.01 0.01 0.01 0.01 0.00 0.00 0.00 0.00 0.01 0.01 0.02
0.00 0.00 0.00 0.00 0.00 0.00 0.00 0.00 0.00 0.00 0.00 0.00 0.00 0.00 0.00 0.00 0.00 0.00 0.00 0.00 0.00 0.00 0.00 0.00 0.00 0.00 0.00 0.00 0.00 0.00 0.01 0.01 0.01 0.01 0.01 0.00 0.00 0.00 0.00 0.00 0.00 0.00 0.01
0.00 0.00 0.00 0.00 0.00 0.00 0.00 0.00 0.00 0.00 0.00 0.00 0.00 0.00 0.00 0.00 0.00 0.00 0.00 0.00 0.00 0.00 0.00 0.00 0.00 0.00 0.00 0.00 0.00 0.00 0.00 0.00 0.00 0.00 0.00 0.00 0.00 0.00 0.00 0.00 0.00 0.00 0.00
0.00 0.00 0.00 0.00 0.00 0.00 0.00 0.00 0.00 0.00 0.00 0.00 0.00 0.00 0.00 0.00 0.00 0.00 0.00 0.00 0.00 0.00 0.00 0.00 0.00 0.00 0.00 0.00 0.00 0.00 0.00 0.00 0.00 0.01 0.01 0.00 0.00 0.00 0.00 0.00 0.01 0.01 0.01
0.00 0.00 0.00 0.00 0.00 0.00 0.00 0.00 0.00 0.00 0.00 0.00 0.00 0.00 0.00 0.00 0.00 0.00 0.00 0.00 0.00 0.00 0.00 0.00 0.00 0.00 0.00 0.00 0.00 0.00 0.00 0.00 0.00 0.00 0.00 0.00 0.00 0.00 0.00 0.00 0.01 0.01 0.01
0.00 0.00 0.00 0.00 0.00 0.00 0.00 0.00 0.00 0.00 0.00 0.00 0.00 0.00 0.00 0.00 0.00 0.00 0.00 0.00 0.00 0.00 0.00 0.00 0.00 0.00 0.00 0.00 0.00 0.00 0.00 0.00 0.00 0.00 0.00 0.01 0.01 0.01 0.01 0.00 0.01 0.01 0.01
0.00 0.00 0.00 0.00 0.00 0.00 0.00 0.00 0.00 0.00 0.00 0.00 0.00 0.00 0.00 0.00 0.00 0.00 0.00 0.00 0.00 0.00 0.00 0.00 0.00 0.00 0.00 0.00 0.00 0.00 0.00 0.00 0.00 0.00 0.00 0.01 0.00 0.01 0.01 0.01 0.01 0.01 0.01
0.00 0.00 0.00 0.00 0.00 0.00 0.00 0.00 0.00 0.00 0.00 0.00 0.00 0.00 0.00 0.00 0.00 0.00 0.00 0.00 0.00 0.00 0.00 0.00 0.00 0.00 0.00 0.00 0.00 0.00 0.00 0.00 0.00 0.00 0.00 0.00 0.01 0.01 0.01 0.01 0.01 0.01 0.01
0.00 0.00 0.00 0.00 0.00 0.00 0.00 0.00 0.00 0.00 0.00 0.00 0.00 0.00 0.00 0.00 0.00 0.00 0.00 0.00 0.00 0.00 0.00 0.00 0.00 0.00 0.00 0.00 0.00 0.00 0.00 0.00 0.00 0.00 0.00 0.00 0.00 0.01 0.01 0.01 0.01 0.01 0.01
0.00 0.00 0.00 0.00 0.00 0.00 0.00 0.00 0.00 0.00 0.00 0.00 0.00 0.00 0.00 0.00 0.00 0.00 0.00 0.00 0.00 0.00 0.00 0.00 0.00 0.00 0.00 0.00 0.00 0.00 0.00 0.00 0.00 0.00 0.00 0.00 0.00 0.00 0.01 0.01 0.01 0.01 0.01
0.00 0.00 0.00 0.00 0.00 0.00 0.00 0.00 0.00 0.00 0.00 0.00 0.00 0.00 0.00 0.00 0.00 0.00 0.00 0.00 0.00 0.00 0.00 0.00 0.00 0.00 0.00 0.00 0.00 0.00 0.00 0.00 0.00 0.00 0.00 0.00 0.00 0.00 0.00 0.01 0.01 0.01 0.01
0.00 0.00 0.00 0.00 0.00 0.00 0.00 0.00 0.00 0.00 0.00 0.00 0.00 0.00 0.00 0.00 0.00 0.00 0.00 0.00 0.00 0.00 0.00 0.00 0.00 0.00 0.00 0.00 0.00 0.00 0.00 0.00 0.00 0.00 0.00 0.00 0.00 0.00 0.00 0.01 0.01 0.01 0.01
0.00 0.00 0.00 0.00 0.00 0.00 0.00 0.00 0.00 0.00 0.00 0.00 0.00 0.00 0.00 0.00 0.00 0.00 0.00 0.00 0.00 0.00 0.00 0.00 0.00 0.00 0.00 0.00 0.00 0.00 0.00 0.00 0.00 0.00 0.01 0.01 0.01 0.01 0.01 0.01 0.01 0.01 0.01
0.00 0.00 0.00 0.00 0.00 0.00 0.00 0.00 0.00 0.00 0.00 0.00 0.00 0.00 0.00 0.00 0.00 0.00 0.00 0.00 0.00 0.00 0.00 0.00 0.00 0.00 0.00 0.00 0.00 0.00 0.00 0.00 0.00 0.01 0.01 0.01 0.01 0.01 0.01 0.01 0.01 0.01 0.01
0.00 0.00 0.00 0.00 0.00 0.00 0.00 0.00 0.00 0.00 0.00 0.00 0.00 0.00 0.00 0.00 0.00 0.00 0.00 0.00 0.00 0.00 0.00 0.00 0.00 0.00 0.00 0.00 0.00 0.00 0.00 0.00 0.01 0.02 0.02 0.02 0.01 0.01 0.01 0.01 0.01 0.01 0.01
0.00 0.00 0.00 0.00 0.00 0.00 0.00 0.00 0.00 0.00 0.00 0.00 0.00 0.00 0.00 0.00 0.00 0.00 0.00 0.00 0.00 0.00 0.00 0.00 0.00 0.00 0.00 0.00 0.00 0.00 0.00 0.01 0.01 0.02 0.03 0.03 0.02 0.01 0.01 0.01 0.01 0.01 0.01
MSLP
1003.02 1003.95 1004.91 1005.89 1006.83 1007.71 1008.54 1009.29 1009.99 1010.64 1011.26 1011.88 1012.49 1013.11 1013.74 1014.37 1014.99 1015.60 1016.18 1016.73 1017.22 1017.66 1018.03 1018.35 1018.59 1018.79 1018.94 1019.05 1019.14 1019.23 1019.34 1019.47 1019.62 1019.82 1020.04 1020.29 1020.54 1020.78 1020.99 1021.16 1021.27 1021.30 1021.26
1002.69 1003.55 1004.46 1005.40 1006.33 1007.24 1008.10 1008.90 1009.65 1010.35 1011.02 1011.65 1012.27 1012.87 1013.47 1014.06 1014.65 1015.21 1015.76 1016.28 1016.76 1017.19 1017.57 1017.90 1018.16 1018.38 1018.55 1018.69 1018.81 1018.92 1019.03 1019.17 1019.32 1019.50 1019.71 1019.92 1020.13 1020.33 1020.50 1020.62 1020.68 1020.69 1020.63
1002.57 1003.34 1004.18 1005.06 1005.96 1006.86 1007.73 1008.56 1009.35 1010.10 1010.80 1011.46 1012.09 1012.69 1013.26 1013.82 1014.37 1014.89 1015.40 1015.89 1016.34 1016.76 1017.14 1017.46 1017.74 1017.97 1018.16 1018.31 1018.45 1018.58 1018.71 1018.85 1019.02 1019.19 1019.39 1019.58 1019.76 1019.92 1020.05 1020.13 1020.16 1020.13 1020.04
1002.62 1003.32 1004.07 1004.88 1005.72 1006.57 1007.43 1008.26 1009.07 1009.85 1010.58 1011.27 1011.91 1012.51 1013.08 1013.62 1014.14 1014.63 1015.11 1015.56 1015.98 1016.38 1016.73 1017.05 1017.32 1017.55 1017.74 1017.90 1018.04 1018.19 1018.33 1018.49 1018.66 1018.85 1019.04 1019.23 1019.41 1019.55 1019.65 1019.71 1019.70 1019.65 1019.54
1002.80 1003.43 1004.11 1004.83 1005.59 1006.38 1007.19 1008.01 1008.82 1009.60 1010.35 1011.07 1011.73 1012.34 1012.91 1013.44 1013.94 1014.41 1014.85 1015.28 1015.67 1016.04 1016.37 1016.66 1016.91 1017.12 1017.29 1017.45 1017.59 1017.73 1017.88 1018.05 1018.24 1018.45 1018.66 1018.86 1019.04 1019.19 1019.29 1019.34 1019.32 1019.25 1019.12
1003.02 1003.62 1004.24 1004.89 1005.57 1006.28 1007.03 1007.81 1008.59 1009.38 1010.14 1010.86 1011.54 1012.17 1012.74 1013.27 1013.76 1014.21 1014.63 1015.03 1015.39 1015.73 1016.03 1016.28 1016.50 1016.68 1016.82 1016.95 1017.07 1017.20 1017.35 1017.53 1017.73 1017.96 1018.19 1018.43 1018.64 1018.81 1018.93 1018.99 1018.98 1018.91 1018.77
1003.24 1003.84 1004.43 1005.01 1005.63 1006.27 1006.95 1007.68 1008.43 1009.19 1009.94 1010.67 1011.36 1012.00 1012.58 1013.11 1013.59 1014.03 1014.43 1014.80 1015.13 1015.43 1015.69 1015.91 1016.08 1016.22 1016.33 1016.42 1016.51 1016.62 1016.76 1016.93 1017.14 1017.39 1017.65 1017.92 1018.16 1018.38 1018.53 1018.63 1018.64 1018.59 1018.47
1003.39 1004.03 1004.61 1005.17 1005.73 1006.32 1006.95 1007.62 1008.33 1009.07 1009.81 1010.54 1011.23 1011.87 1012.45 1012.98 1013.45 1013.87 1014.24 1014.58 1014.87 1015.13 1015.35 1015.53 1015.66 1015.75 1015.82 1015.88 1015.93 1016.01 1016.13 1016.29 1016.50 1016.75 1017.04 1017.34 1017.63 1017.88 1018.08 1018.22 1018.29 1018.27 1018.18
1003.45 1004.14 1004.75 1005.31 1005.86 1006.41 1007.00 1007.64 1008.33 1009.04 1009.77 1010.49 1011.18 1011.81 1012.38 1012.89 1013.34 1013.73 1014.07 1014.37 1014.63 1014.85 1015.03 1015.16 1015.26 1015.32 1015.35 1015.37 1015.39 1015.44 1015.53 1015.67 1015.86 1016.11 1016.41 1016.72 1017.04 1017.34 1017.59 1017.77 1017.88 1017.92 1017.87
1003.41 1004.17 1004.83 1005.42 1005.97 1006.53 1007.11 1007.74 1008.41 1009.12 1009.84 1010.56 1011.23 1011.85 1012.40 1012.88 1013.30 1013.65 1013.95 1014.21 1014.42 1014.60 1014.75 1014.85 1014.92 1014.95 1014.96 1014.95 1014.95 1014.96 1015.02 1015.13 1015.30 1015.53 1015.81 1016.13 1016.46 1016.78 1017.06 1017.29 1017.45 1017.54 1017.54
1003.28 1004.12 1004.85 1005.49 1006.08 1006.66 1007.26 1007.91 1008.59 1009.31 1010.04 1010.75 1011.41 1012.02 1012.54 1012.99 1013.36 1013.67 1013.92 1014.13 1014.31 1014.45 1014.57 1014.65 1014.71 1014.73 1014.72 1014.70 1014.67 1014.66 1014.68 1014.75 1014.88 1015.08 1015.32 1015.62 1015.93 1016.25 1016.55 1016.81 1017.01 1017.14 1017.20
1003.10 1004.02 1004.81 1005.52 1006.17 1006.80 1007.46 1008.14 1008.86 1009.61 1010.35 1011.07 1011.74 1012.32 1012.82 1013.23 1013.56 1013.82 1014.03 1014.19 1014.33 1014.45 1014.55 1014.62 1014.67 1014.69 1014.69 1014.66 1014.62 1014.58 1014.57 1014.60 1014.67 1014.81 1015.00 1015.25 1015.53 1015.82 1016.11 1016.38 1016.60 1016.77 1016.87
1002.91 1003.89 1004.75 1005.53 1006.26 1006.97 1007.69 1008.44 1009.22 1010.01 1010.79 1011.52 1012.19 1012.77 1013.25 1013.63 1013.92 1014.14 1014.30 1014.43 1014.54 1014.64 1014.73 1014.81 1014.86 1014.90 1014.90 1014.87 1014.82 1014.76 1014.71 1014.69 1014.70 1014.76 1014.88 1015.06 1015.27 1015.52 1015.78 1016.03 1016.26 1016.44 1016.57
1002.73 1003.77 1004.71 1005.56 1006.38 1007.17 1007.98 1008.80 1009.65 1010.50 1011.32 1012.09 1012.77 1013.35 1013.82 1014.18 1014.44 1014.63 1014.77 1014.87 1014.96 1015.06 1015.14 1015.23 1015.30 1015.34 1015.36 1015.33 1015.27 1015.19 1015.10 1015.01 1014.95 1014.93 1014.97 1015.05 1015.19 1015.37 1015.58 1015.80 1016.01 1016.19 1016.32
1002.60 1003.69 1004.70 1005.63 1006.53 1007.42 1008.32 1009.23 1010.15 1011.05 1011.92 1012.73 1013.43 1014.03 1014.50 1014.85 1015.11 1015.28 1015.40 1015.50 1015.59 1015.68 1015.77 1015.87 1015.95 1016.01 1016.03 1016.00 1015.93 1015.82 1015.68 1015.54 1015.40 1015.29 1015.23 1015.22 1015.27 1015.37 1015.51 1015.67 1015.85 1016.01 1016.14
1002.54 1003.68 1004.75 1005.77 1006.75 1007.73 1008.71 1009.70 1010.69 1011.66 1012.57 1013.41 1014.15 1014.76 1015.24 1015.60 1015.86 1016.04 1016.17 1016.27 1016.36 1016.46 1016.57 1016.67 1016.76 1016.83 1016.85 1016.81 1016.72 1016.58 1016.39 1016.18 1015.97 1015.77 1015.62 1015.51 1015.47 1015.49 1015.55 1015.66 1015.78 1015.91 1016.01
1002.54 1003.73 1004.87 1005.97 1007.03 1008.10 1009.15 1010.21 1011.26 1012.27 1013.23 1014.10 1014.86 1015.49 1015.99 1016.37 1016.65 1016.85 1016.99 1017.11 1017.21 1017.32 1017.44 1017.55 1017.64 1017.71 1017.72 1017.67 1017.55 1017.37 1017.13 1016.87 1016.58 1016.31 1016.07 1015.89 1015.76 1015.69 1015.69 1015.72 1015.79 1015.87 1015.93
1002.62 1003.86 1005.07 1006.23 1007.38 1008.51 1009.63 1010.75 1011.83 1012.88 1013.86 1014.75 1015.52 1016.17 1016.70 1017.10 1017.40 1017.62 1017.79 1017.93 1018.05 1018.17 1018.29 1018.41 1018.49 1018.55 1018.54 1018.47 1018.32 1018.11 1017.83 1017.51 1017.18 1016.84 1016.54 1016.28 1016.09 1015.95 1015.88 1015.85 1015.86 1015.88 1015.90
1002.76 1004.06 1005.33 1006.57 1007.78 1008.96 1010.13 1011.28 1012.39 1013.45 1014.44 1015.33 1016.11 1016.77 1017.31 1017.74 1018.07 1018.31 1018.51 1018.67 1018.81 1018.94 1019.06 1019.16 1019.24 1019.27 1019.24 1019.14 1018.97 1018.73 1018.42 1018.07 1017.70 1017.33 1016.98 1016.68 1016.43 1016.25 1016.12 1016.04 1015.99 1015.96 1015.92
1002.99 1004.34 1005.66 1006.95 1008.21 1009.44 1010.63 1011.79 1012.91 1013.96 1014.94 1015.82 1016.60 1017.26 1017.81 1018.26 1018.61 1018.88 1019.10 1019.28 1019.43 1019.56 1019.67 1019.76 1019.82 1019.83 1019.78 1019.65 1019.46 1019.19 1018.87 1018.51 1018.12 1017.74 1017.37 1017.05 1016.78 1016.56 1016.39 1016.27 1016.18 1016.11 1016.02
1003.31 1004.70 1006.06 1007.39 1008.68 1009.93 1011.13 1012.28 1013.38 1014.41 1015.36 1016.23 1016.99 1017.65 1018.20 1018.66 1019.03 1019.32 1019.55 1019.74 1019.90 1020.02 1020.12 1020.19 1020.22 1020.20 1020.12 1019.98 1019.77 1019.51 1019.18 1018.82 1018.45 1018.07 1017.71 1017.39 1017.11 1016.88 1016.70 1016.55 1016.43 1016.31 1016.19
1003.74 1005.15 1006.53 1007.88 1009.17 1010.41 1011.60 1012.73 1013.79 1014.79 1015.71 1016.55 1017.29 1017.94 1018.50 1018.96 1019.33 1019.64 1019.88 1020.07 1020.22 1020.33 1020.40 1020.44 1020.44 1020.40 1020.30 1020.14 1019.93 1019.67 1019.36 1019.02 1018.67 1018.32 1017.99 1017.68 1017.42 1017.19 1017.01 1016.86 1016.72 1016.58 1016.43
1004.28 1005.69 1007.07 1008.40 1009.68 1010.90 1012.05 1013.14 1014.16 1015.12 1016.01 1016.81 1017.54 1018.17 1018.72 1019.18 1019.56 1019.87 1020.11 1020.29 1020.42 1020.50 1020.55 1020.56 1020.52 1020.45 1020.33 1020.16 1019.95 1019.70 1019.42 1019.11 1018.80 1018.49 1018.19 1017.92 1017.69 1017.49 1017.31 1017.16 1017.02 1016.88 1016.73
1004.93 1006.32 1007.67 1008.97 1010.20 1011.37 1012.48 1013.52 1014.50 1015.41 1016.26 1017.04 1017.75 1018.37 1018.91 1019.37 1019.75 1020.05 1020.27 1020.43 1020.53 1020.59 1020.59 1020.56 1020.50 1020.39 1020.25 1020.08 1019.87 1019.63 1019.38 1019.11 1018.84 1018.57 1018.32 1018.09 1017.89 1017.71 1017.56 1017.43 1017.31 1017.18 1017.03
1005.68 1007.02 1008.32 1009.56 1010.73 1011.84 1012.89 1013.88 1014.81 1015.69 1016.51 1017.26 1017.95 1018.56 1019.10 1019.55 1019.92 1020.20 1020.40 1020.53 1020.60 1020.61 1020.57 1020.50 1020.39 1020.25 1020.09 1019.91 1019.70 1019.48 1019.25 1019.01 1018.78 1018.55 1018.34 1018.15 1017.98 1017.84 1017.72 1017.62 1017.52 1017.41 1017.28
1006.50 1007.77 1009.00 1010.16 1011.27 1012.31 1013.30 1014.23 1015.12 1015.96 1016.75 1017.49 1018.16 1018.76 1019.29 1019.73 1020.07 1020.33 1020.50 1020.59 1020.61 1020.58 1020.49 1020.37 1020.22 1020.05 1019.87 1019.67 1019.47 1019.26 1019.04 1018.83 1018.62 1018.42 1018.24 1018.08 1017.95 1017.84 1017.75 1017.68 1017.61 1017.54 1017.45
Thickness
5677 5673 5667 5663 5658 5652 5647 5642 5637 5631 5625 5618 5612 5605 5598 5591 5584 5577 5570 5563 5556 5550 5542 5537 5530 5523 5515 5507 5500 5493 5486 5480 5477 5477 5468 5461 5452 5444 5437 5430 5424 5418 5412
5671 5667 5662 5657 5652 5647 5642 5637 5631 5625 5619 5613 5606 5599 5593 5586 5579 5572 5565 5558 5551 5544 5537 5531 5524 5515 5508 5501 5493 5486 5480 5473 5467 5464 5459 5450 5441 5433 5425 5417 5410 5404 5397
5663 5660 5655 5650 5646 5641 5636 5630 5625 5619 5613 5606 5600 5594 5587 5580 5573 5567 5561 5553 5546 5539 5531 5524 5517 5509 5501 5494 5486 5479 5472 5464 5456 5450 5446 5438 5429 5420 5412 5405 5397 5390 5383
5656 5652 5648 5644 5639 5634 5629 5623 5618 5612 5606 5600 5593 5587 5580 5573 5566 5560 5553 5546 5538 5531 5524 5516 5509 5501 5494 5486 5478 5471 5463 5454 5446 5438 5432 5425 5416 5407 5398 5391 5385 5376 5369
5648 5644 5640 5636 5631 5626 5620 5615 5609 5604 5598 5592 5586 5579 5572 5565 5558 5552 5544 5537 5530 5523 5515 5508 5500 5492 5484 5477 5469 5461 5453 5444 5435 5426 5419 5411 5403 5394 5385 5376 5368 5362 5354
5641 5637 5632 5627 5622 5617 5612 5606 5601 5595 5589 5583 5577 5571 5565 5558 5551 5544 5537 5530 5522 5515 5508 5499 5492 5483 5475 5467 5458 5450 5441 5432 5423 5414 5406 5397 5388 5379 5370 5361 5352 5345 5340
5633 5629 5624 5620 5614 5609 5603 5598 5593 5587 5581 5576 5570 5564 5558 5550 5543 5536 5528 5523 5515 5508 5500 5492 5483 5475 5466 5459 5450 5440 5431 5420 5410 5401 5392 5382 5374 5365 5355 5347 5337 5329 5323
5626 5621 5617 5612 5607 5601 5596 5591 5585 5580 5574 5568 5561 5555 5549 5541 5534 5527 5519 5513 5506 5499 5491 5483 5475 5467 5457 5448 5440 5431 5421 5410 5399 5389 5379 5369 5358 5349 5339 5331 5323 5317 5310
5619 5615 5610 5606 5600 5594 5589 5583 5577 5572 5565 5558 5552 5546 5540 5532 5524 5517 5510 5504 5497 5489 5480 5472 5465 5457 5448 5439 5430 5420 5410 5399 5387 5375 5365 5355 5345 5335 5326 5318 5310 5303 5300
5614 5609 5604 5599 5594 5588 5582 5575 5569 5563 5556 5548 5541 5536 5530 5523 5515 5508 5501 5495 5488 5480 5471 5462 5453 5445 5436 5426 5417 5408 5397 5387 5376 5365 5354 5344 5334 5325 5315 5306 5297 5291 5286
5607 5601 5596 5591 5586 5581 5574 5567 5560 5553 5545 5538 5531 5525 5519 5512 5505 5498 5491 5486 5479 5471 5462 5453 5444 5434 5424 5414 5405 5395 5384 5374 5364 5353 5343 5334 5325 5315 5305 5296 5287 5279 5274
5599 5593 5588 5583 5576 5571 5565 5557 5551 5544 5537 5529 5522 5514 5508 5501 5495 5488 5481 5475 5468 5461 5453 5443 5434 5423 5413 5403 5393 5382 5371 5361 5351 5341 5332 5324 5315 5306 5296 5287 5279 5271 5265
5592 5586 5580 5573 5567 5562 5556 5549 5542 5536 5529 5521 5514 5506 5498 5491 5485 5478 5471 5464 5457 5450 5442 5432 5422 5412 5402 5392 5381 5370 5360 5350 5339 5330 5321 5313 5304 5295 5287 5280 5273 5267 5261
5586 5578 5571 5564 5557 5551 5545 5540 5534 5528 5521 5513 5505 5498 5490 5483 5476 5469 5462 5454 5446 5439 5430 5420 5411 5401 5391 5380 5370 5360 5349 5338 5328 5318 5310 5302 5294 5286 5279 5273 5267 5262 5258
5577 5569 5562 5555 5549 5541 5534 5529 5524 5519 5514 5507 5499 5492 5484 5476 5468 5461 5455 5447 5438 5429 5420 5410 5401 5391 5381 5370 5360 5349 5338 5327 5317 5308 5300 5292 5285 5278 5272 5266 5260 5256 5252
5570 5561 5554 5547 5540 5533 5525 5515 5507 5504 5498 5493 5488 5482 5474 5468 5459 5452 5444 5436 5427 5419 5410 5401 5392 5382 5371 5360 5349 5339 5328 5318 5308 5298 5290 5283 5276 5270 5265 5260 5255 5251 5248
5565 5556 5547 5540 5533 5526 5518 5511 5500 5490 5485 5480 5475 5469 5464 5456 5449 5442 5434 5425 5417 5408 5400 5391 5381 5370 5360 5349 5338 5328 5318 5308 5298 5290 5282 5275 5269 5263 5259 5254 5251 5247 5244
5555 5546 5540 5533 5526 5518 5511 5504 5496 5488 5478 5469 5462 5457 5452 5445 5439 5431 5423 5415 5407 5398 5390 5381 5370 5360 5349 5339 5328 5318 5309 5299 5290 5283 5275 5269 5262 5257 5253 5249 5246 5242 5239
5545 5538 5531 5524 5516 5509 5501 5494 5487 5479 5471 5462 5454 5446 5440 5434 5427 5420 5413 5406 5398 5389 5380 5371 5360 5350 5339 5329 5319 5309 5300 5291 5283 5276 5269 5262 5257 5252 5248 5244 5241 5238 5236
5534 5527 5522 5515 5506 5498 5491 5484 5477 5470 5462 5455 5447 5439 5431 5425 5418 5411 5403 5396 5388 5380 5371 5361 5351 5340 5330 5320 5310 5301 5292 5284 5276 5269 5263 5257 5252 5247 5243 5240 5237 5235 5234
5524 5515 5510 5504 5497 5490 5483 5475 5468 5461 5453 5446 5438 5430 5424 5418 5410 5402 5395 5387 5379 5370 5361 5351 5342 5331 5321 5312 5302 5293 5284 5277 5270 5263 5257 5252 5247 5243 5240 5237 5234 5233 5231
5516 5508 5502 5495 5487 5480 5473 5466 5458 5451 5444 5437 5429 5421 5414 5408 5401 5394 5386 5378 5370 5361 5351 5342 5333 5323 5313 5303 5294 5286 5278 5271 5264 5258 5252 5247 5242 5239 5236 5234 5232 5231 5229
5507 5499 5492 5484 5478 5470 5463 5455 5448 5442 5435 5428 5420 5413 5406 5399 5393 5385 5377 5369 5360 5352 5343 5333 5324 5315 5305 5295 5286 5278 5271 5264 5258 5252 5246 5243 5239 5237 5234 5232 5230 5228 5228
5497 5491 5484 5476 5468 5461 5453 5446 5439 5432 5426 5419 5411 5405 5398 5390 5383 5375 5368 5360 5351 5343 5334 5325 5315 5306 5296 5287 5280 5272 5265 5258 5252 5247 5242 5239 5237 5234 5232 5230 5229 5228 5226
5488 5482 5474 5467 5459 5452 5444 5437 5430 5423 5416 5409 5403 5396 5389 5381 5374 5366 5358 5351 5342 5334 5325 5316 5307 5298 5290 5281 5274 5267 5260 5254 5249 5244 5241 5238 5235 5233 5230 5228 5227 5226 5225
5478 5471 5465 5458 5450 5443 5436 5429 5422 5415 5408 5401 5394 5387 5380 5373 5365 5358 5350 5342 5334 5326 5317 5308 5300 5291 5283 5276 5269 5262 5257 5251 5247 5243 5240 5237 5235 5233 5230 5228 5226 5225 5224